Back to catalog

HJ-2B

AliveScienceSSO
NORAD 46479·PAYLOAD·🇨🇳 China

Launched Sep 27, 2020 from Taiyuan Satellite Launch Center

Loading…

Next Passes (next 24 hours)

TLE

FreshSource: Space-Track

Epoch: Sep 14, 2026, 15:43 UTC

1 46479U 20067B   26257.65520685  .00000691  00000-0  10625-3 0  9997
2 46479  97.8839 334.9751 0001036  61.0956 299.0358 14.76562259321464

Track HJ-2B in real time with AllMySat

Download on the App Store